Regional Weather Roundup
Issued by NWS

Home | Current Version | Previous Version | Graphics & Text | Print | Product List | Glossary On
Versions: 1 2 3 4 5 6 7 8 9 10 11 12 13 14 15 16 17 18 19 20 21 22 23 24 25 26 27
000
ASUS45 KCYS 240210
RWRWY

WYOMING REGIONAL WEATHER ROUNDUP
NATIONAL WEATHER SERVICE CHEYENNE WY
800 PM MDT TUE AUG 23 2016

NOTE:  "FAIR" INDICATES FEW OR NO CLOUDS BELOW 12,000 FEET
WITH NO SIGNIFICANT WEATHER AND/OR OBSTRUCTIONS TO VISIBILITY.

WYZ001-240300-
YELLOWSTONE NATIONAL PARK

CITY           SKY/WX    TMP DP  RH WIND       PRES   REMARKS
LK YELLOWSTONE   N/A     58  11  15 VRB3      30.28R
W YELLOWSTONE  NOT AVBL

$$
WYZ002>013-054>058-071-098>099-240300-
NORTHERN WYOMING

CITY           SKY/WX    TMP DP  RH WIND       PRES   REMARKS
JACKSON        CLEAR     61  19  20 SW9       30.19R
CODY           FAIR      64  25  22 N9        30.13R
GREYBULL       FAIR      76  19  11 N22G28    30.01R
WORLAND        FAIR      74  22  14 N13G22    30.01R
SHERIDAN       FAIR      60  44  55 W5        30.07R
BUFFALO        FAIR      66  28  24 NW12      30.13R
GILLETTE       FAIR      66  28  24 N12       30.06R
HULETT         FAIR      66  34  30 CALM      30.08R
NEWCASTLE      FAIR      70  25  18 N12       30.02F

$$
WYZ014>020-022>026-101>103-240300-
CENTRAL WYOMING

CITY           SKY/WX    TMP DP  RH WIND       PRES   REMARKS
BIG PINEY      FAIR      63  16  16 N9        30.22R
PINEDALE       FAIR      63  12  14 NW12      30.23R
DUBOIS         CLOUDY    59  14  17 W13       30.21R
LANDER         FAIR      73  21  14 NW9       30.07R
RIVERTON       FAIR      72  16  12 N15G24    30.06R
CASPER         FAIR      73  22  14 E16       30.05R
DOUGLAS        FAIR      67  23  19 E12       30.07R

$$
WYZ021-027>030-104>119-240300-
SOUTHERN WYOMING

CITY           SKY/WX    TMP DP  RH WIND       PRES   REMARKS
EVANSTON       FAIR      66  20  17 W10       30.23R
FORT BRIDGER   FAIR      70  18  14 W8G18     30.25R
ROCK SPRINGS   FAIR      70  19  14 NW21      30.17R
DIXON          FAIR      69  32  25 SW7       30.20R
RAWLINS        FAIR      73  23  15 W9        30.16R
SARATOGA       FAIR      68  30  24 SW9G17    30.20R
LARAMIE        FAIR      65  31  28 SW12      30.21R
CHEYENNE       FAIR      71  34  25 SW12G25   30.16R
TORRINGTON     FAIR      71  24  17 NE10      30.02R
PINE BLUFFS    FAIR      70  30  23 E5        30.09S

$$




USA.gov is the U.S. government's official web portal to all federal, state and local government web resources and services.